Regional Weather Roundup
Issued by NWS

Home | Current Version | Previous Version | Graphics & Text | Print | Product List | Glossary On
Versions: 1 2 3 4 5 6 7 8 9 10 11 12 13 14 15 16 17 18 19 20 21 22 23 24 25 26 27 28 29 30 31 32 33 34 35 36 37 38 39 40 41 42 43 44 45 46 47 48 49 50
000
ASUS43 KMKX 240411
RWRWI

WISCONSIN REGIONAL WEATHER ROUNDUP
NATIONAL WEATHER SERVICE MILWAUKEE/SULLIVAN WI
1000 PM CST THU NOV 23 2017

NOTE: "FAIR" INDICATES FEW OR NO CLOUDS BELOW 12,000 FEET WITH NO
SIGNIFICANT WEATHER AND/OR OBSTRUCTIONS TO VISIBILITY.

WIZ001-002-006>008-014>016-023>028-240500-
NORTHWEST WISCONSIN

CITY           SKY/WX    TMP DP  RH WIND       PRES   REMARKS
SUPERIOR ARPT  MOCLDY    38  27  64 SW10      29.54F WCI  31
ASHLAND        MOCLDY    38  24  57 S9        29.58F WCI  31
HAYWARD        PTCLDY    39  24  55 S16G24    29.61F WCI  30
SIREN          PTCLDY    42  28  59 S12       29.60F
CUMBERLAND     MOCLDY    32  25  74 S6        29.64F WCI  26
RICE LAKE      CLEAR     37  26  63 S9        29.67F WCI  31
CHETEK         CLEAR     37  26  62 S7        29.66F WCI  32
LADYSMITH      PTCLDY    36  24  63 S5        29.68F WCI  32
EAU CLAIRE     CLEAR     33  22  63 S6        29.68F WCI  28
MENOMONIE      CLEAR     39  27  61 S12       29.67F WCI  32
NEW RICHMOND   CLEAR     39  28  63 S7        29.64F WCI  34
OSCEOLA        CLOUDY    41  29  63 S9        29.66F
$$

WIZ003>005-009-010-017-018-240500-
NORTH CENTRAL WISCONSIN

CITY           SKY/WX    TMP DP  RH WIND       PRES   REMARKS
MANITOWISH WTR CLOUDY    33  25  73 S7        29.63F WCI  27
ARBOR VITAE    CLOUDY    37  27  69 S9        29.63F WCI  30
WOODRUFF       CLOUDY    37  27  69 S9        29.63F WCI  30
RHINELANDER    CLOUDY    36  23  59 SW12      29.67F WCI  28
EAGLE RIVER    LGT RAIN  34  24  65 S7        29.64F WCI  28
LAND O LAKES   MIX PCPN  34  25  69 S7        29.65F WCI  28
PHILLIPS       MOCLDY    34  23  64 S10       29.65F WCI  26
TOMAHAWK       CLOUDY    34  22  62 S5        29.68F WCI  30
MEDFORD        CLOUDY    35  24  63 S9        29.68F WCI  28
MERRILL        CLOUDY    36  23  59 S7        29.71F WCI  30
$$

WIZ029-030-035-036-043>047-240500-
CENTRAL WISCONSIN

CITY           SKY/WX    TMP DP  RH WIND       PRES   REMARKS
WAUSAU         CLOUDY    35  23  61 SE10      29.71F WCI  27
MOSINEE        CLOUDY    34  25  69 S8        29.74F WCI  27
MARSHFIELD     CLOUDY    38  22  52 SW14      29.71F WCI  30
STEVENS POINT  CLOUDY    34  22  62 S8        29.75F WCI  27
WAUPACA        MOCLDY    35  25  65 S5        29.79F WCI  31
WAUTOMA        CLOUDY    33  22  63 S5        29.80F WCI  29
WISC RAPIDS    CLOUDY    36  23  59 S7        29.76F WCI  30
CAMP DOUGLAS   PTCLDY    35  24  64 S6        29.76F WCI  30
$$

WIZ011>013-019>022-031-037>040-048>050-240500-
NORTHEAST WISCONSIN

CITY           SKY/WX    TMP DP  RH WIND       PRES   REMARKS
ANTIGO         CLOUDY    33  23  66 S8        29.72F WCI  26
SHAWANO        CLOUDY    37  23  57 SW5       29.77S WCI  33
OCONTO         CLOUDY    34  24  67 W3        29.78S
STURGEON BAY   CLOUDY    35  23  61 S8        29.79F WCI  29
GREEN BAY      MOCLDY    33  25  72 S7        29.78F WCI  27
MANITOWOC      CLEAR     33  22  63 S8        29.82F WCI  26
APPLETON       CLEAR     34  21  60 SW7       29.77F WCI  28
CLINTONVILLE   CLOUDY    34  21  60 SW7       29.78S WCI  28
OSHKOSH        PTCLDY    30  24  78 S9        29.80F WCI  22
$$

WIZ032>034-041-042-053>061-240500-
SOUTHWEST WISCONSIN

CITY           SKY/WX    TMP DP  RH WIND       PRES   REMARKS
LA CROSSE      CLEAR     40  26  57 S12       29.76F WCI  33
SPARTA         CLOUDY    38  27  65 S3        29.77F
VIROQUA        PTCLDY    37  28  69 S8        29.77F WCI  31
BOSCOBEL       CLEAR     27  22  81 CALM      29.83F
PRAIRIE DU CHI CLEAR     31  24  74 CALM      29.82F
PLATTEVILLE    CLEAR     36  28  74 S8        29.84F WCI  29
$$

WIZ056-057-062-063-064-067-068-240500-
SOUTH CENTRAL WISCONSIN

CITY           SKY/WX    TMP DP  RH WIND       PRES   REMARKS
REEDSBURG      CLEAR     36  25  63 S7        29.80F WCI  31
BARABOO/DELLS  CLEAR     34  24  66 CALM      29.80F
LONE ROCK      NOT AVBL
MINERAL POINT  CLEAR     36  28  75 S8        29.82F WCI  29
MADISON        CLEAR     34  25  69 S5        29.83F WCI  30
MIDDLETON      CLEAR     36  26  65 S5        29.83F WCI  32
WATERTOWN      CLEAR     32  26  78 S5        29.84F WCI  27
MONROE         CLEAR     34  27  75 S9        29.85S WCI  26
JANESVILLE     CLEAR     32  27  80 S3        29.86F
$$

WIZ051-052-058>065-066-070>072-240500-
SOUTHEAST WISCONSIN

CITY           SKY/WX    TMP DP  RH WIND       PRES   REMARKS
MILWAUKEE      CLEAR     35  25  66 S5        29.87F WCI  31
WAUKESHA       CLEAR     32  23  69 CALM      29.87F
MILWAUKEE/TIMM CLEAR     32  21  64 SW5       29.87F WCI  27
RACINE         CLEAR     34  25  69 SW7       29.89F WCI  28
BURLINGTON     CLEAR     29  28  95 CALM      29.88S
KENOSHA        CLEAR     33  24  69 SW3       29.88F
FOND DU LAC    CLEAR     31  23  72 S8        29.82F WCI  23
SHEBOYGAN      CLEAR     29  23  78 S7        29.83F WCI  22
WEST BEND      CLEAR     30  25  80 CALM      29.84F
JUNEAU         CLEAR     32  24  72 S5        29.85F WCI  27
$$

LSZ147-162-240500-
LAKE SUPERIOR

STATION/POSITION TIME  TEMP    WIND        PRES    WAVE
                       AIR SEA DIR/SP/G            HT/PER
                 (UTC) (F)     (DEG/KT/KT) (MB)    (FT/S)
DEVILS ISLAND    0400   38     180/  6/  8 1001.7F
SAXON HARBOR     0340   40     190/  5/  9 1001.7F
$$

LMZ867-665-643>646-240500-
LAKE MICHIGAN

STATION/POSITION TIME  TEMP    WIND        PRES    WAVE
                       AIR SEA DIR/SP/G            HT/PER
                 (UTC) (F)     (DEG/KT/KT) (MB)    (FT/S)
N MID LAKE BUOY  0350   42 47  200/ 19/ 23 1009.0F   3/ 4
NORTHPORT PIER   0401   37     190/  4/  9 1008.1
KEWAUNEE LAKESHO 0348   36     190/ 10/ 12 1008.3F
SHEBOYGAN LAKESH 0400   37     200/ 12/ 14 1010.7F
PORT WASHINGTON  0340   35     210/  4/  8 1011.9F
MILWAUKEE LAKESH 0350   38     240/  8/  8   N/A
S MID LAKE BUOY  0350   44 47  250/ 14/ 16 1013.0F   1/ 3
KENOSHA   LAKESH 0400   38     230/  6/  9 1012.2
$$

TC  - TEMPERATURE IN CELSIUS
VSB - VISIBILITY IN STATUTE MILES
WCI - WIND CHILL INDEX
HX  - HEAT INDEX





USA.gov is the U.S. government's official web portal to all federal, state and local government web resources and services.